Time,TemperatureF,DewpointF,PressureIn,WindDirection,WindDirectionDegrees,WindSpeedMPH,WindSpeedGustMPH,Humidity,HourlyPrecipIn,Conditions,Clouds,dailyrainin,SolarRadiationWatts/m^2,SoftwareType,DateUTC
2013-07-17 00:01:00,73.0,72.0,-100.00,NNE,29,2.0,-999.0,96,0.00,,,-99.99,0.000000,,2013-07-17 04:01:00,
2013-07-17 00:32:00,73.0,72.0,-100.00,ESE,110,1.0,-999.0,96,0.00,,,-99.99,0.000000,,2013-07-17 04:32:00,
2013-07-17 00:53:00,73.0,72.0,-100.00,NE,34,1.0,-999.0,96,0.00,,,-99.99,0.000000,,2013-07-17 04:53:00,
2013-07-17 01:02:00,73.0,72.0,-100.00,NE,34,1.0,-999.0,96,0.00,,,-99.99,0.000000,,2013-07-17 05:02:00,
2013-07-17 01:32:00,72.0,72.0,-100.00,NE,41,2.0,-999.0,97,0.00,,,-99.99,0.000000,,2013-07-17 05:32:00,
2013-07-17 01:52:00,72.0,72.0,-100.00,NNE,23,2.0,-999.0,97,0.00,,,-99.99,0.000000,,2013-07-17 05:52:00,
2013-07-17 02:01:00,72.0,72.0,-100.00,NNE,23,2.0,-999.0,97,0.00,,,-99.99,0.000000,,2013-07-17 06:01:00,
2013-07-17 02:11:00,72.0,72.0,-100.00,NE,47,2.0,-999.0,97,0.00,,,-99.99,0.000000,,2013-07-17 06:11:00,
2013-07-17 02:22:00,73.0,72.0,-100.00,NE,44,2.0,-999.0,97,0.00,,,-99.99,0.000000,,2013-07-17 06:22:00,
2013-07-17 02:43:00,72.0,72.0,-100.00,NE,45,2.0,-999.0,97,0.00,,,-99.99,0.000000,,2013-07-17 06:43:00,
2013-07-17 03:01:00,72.0,72.0,-100.00,NE,48,2.0,-999.0,97,0.00,,,-99.99,0.000000,,2013-07-17 07:01:00,
2013-07-17 03:11:00,72.0,72.0,-100.00,NE,48,2.0,-999.0,97,0.00,,,-99.99,0.000000,,2013-07-17 07:11:00,
2013-07-17 03:32:00,72.0,72.0,-100.00,NE,37,2.0,-999.0,97,0.00,,,-99.99,0.000000,,2013-07-17 07:32:00,
2013-07-17 03:42:00,72.0,72.0,-100.00,NNE,24,2.0,-999.0,97,0.00,,,-99.99,0.000000,,2013-07-17 07:42:00,
2013-07-17 03:52:00,72.0,71.0,-100.00,North,8,2.0,-999.0,97,0.00,,,-99.99,0.000000,,2013-07-17 07:52:00,
2013-07-17 04:01:00,72.0,71.0,-100.00,NE,47,2.0,-999.0,97,0.00,,,-99.99,0.000000,,2013-07-17 08:01:00,
2013-07-17 04:22:00,72.0,71.0,-100.00,NNE,28,2.0,-999.0,97,0.00,,,-99.99,0.000000,,2013-07-17 08:22:00,
2013-07-17 04:32:00,72.0,71.0,-100.00,NNE,28,2.0,-999.0,97,0.00,,,-99.99,0.000000,,2013-07-17 08:32:00,
2013-07-17 04:53:00,72.0,71.0,-100.00,NE,40,2.0,-999.0,97,0.00,,,-99.99,0.000000,,2013-07-17 08:53:00,
2013-07-17 05:02:00,72.0,71.0,-100.00,NE,41,2.0,-999.0,97,0.00,,,-99.99,0.000000,,2013-07-17 09:02:00,
2013-07-17 05:22:00,72.0,72.0,-100.00,NE,51,3.0,-999.0,97,0.00,,,-99.99,0.000000,,2013-07-17 09:22:00,
2013-07-17 05:52:00,72.0,72.0,-100.00,NE,45,2.0,-999.0,97,0.00,,,-99.99,0.000000,,2013-07-17 09:52:00,
2013-07-17 06:01:00,72.0,72.0,-100.00,NNE,30,2.0,-999.0,97,0.00,,,-99.99,0.000000,,2013-07-17 10:01:00,
2013-07-17 06:22:00,72.0,72.0,-100.00,NE,37,3.0,-999.0,97,0.00,,,-99.99,0.000000,,2013-07-17 10:22:00,
2013-07-17 06:32:00,72.0,72.0,-100.00,NE,45,3.0,-999.0,97,0.00,,,-99.99,0.000000,,2013-07-17 10:32:00,
2013-07-17 06:52:00,72.0,72.0,-100.00,ENE,61,3.0,-999.0,97,0.00,,,-99.99,0.100000,,2013-07-17 10:52:00,
2013-07-17 07:11:00,72.0,72.0,-100.00,ENE,67,2.0,-999.0,98,0.00,,,-99.99,1.300000,,2013-07-17 11:11:00,
2013-07-17 07:22:00,73.0,72.0,-100.00,NE,48,2.0,-999.0,98,0.00,,,-99.99,6.100000,,2013-07-17 11:22:00,
2013-07-17 07:32:00,73.0,72.0,-100.00,NE,48,2.0,-999.0,98,0.00,,,-99.99,6.100000,,2013-07-17 11:32:00,
2013-07-17 07:52:00,73.0,72.0,-100.00,NE,42,3.0,-999.0,98,0.00,,,-99.99,33.200001,,2013-07-17 11:52:00,
2013-07-17 08:12:00,74.0,73.0,-100.00,NE,41,3.0,-999.0,98,0.00,,,-99.99,64.400002,,2013-07-17 12:12:00,
2013-07-17 08:22:00,74.0,74.0,-100.00,NE,53,4.0,-999.0,97,0.00,,,-99.99,94.000000,,2013-07-17 12:22:00,
2013-07-17 08:53:00,76.0,75.0,-100.00,ENE,78,4.0,-999.0,95,0.00,,,-99.99,236.300003,,2013-07-17 12:53:00,
2013-07-17 09:01:00,76.0,75.0,-100.00,ENE,78,4.0,-999.0,95,0.00,,,-99.99,236.300003,,2013-07-17 13:01:00,
2013-07-17 09:12:00,77.0,75.0,-100.00,East,86,3.0,-999.0,93,0.00,,,-99.99,211.100006,,2013-07-17 13:12:00,
2013-07-17 09:22:00,78.0,76.0,-100.00,East,83,3.0,-999.0,91,0.00,,,-99.99,256.299988,,2013-07-17 13:22:00,
2013-07-17 09:32:00,78.0,76.0,-100.00,East,83,3.0,-999.0,91,0.00,,,-99.99,256.299988,,2013-07-17 13:32:00,
2013-07-17 09:53:00,81.0,76.0,-100.00,East,87,4.0,-999.0,86,0.00,,,-99.99,381.500000,,2013-07-17 13:53:00,
2013-07-17 10:11:00,81.0,76.0,-100.00,East,91,4.0,-999.0,86,0.00,,,-99.99,412.899994,,2013-07-17 14:11:00,
2013-07-17 10:32:00,81.0,76.0,-100.00,East,86,4.0,-999.0,84,0.00,,,-99.99,411.200012,,2013-07-17 14:32:00,
2013-07-17 10:52:00,83.0,77.0,-100.00,ENE,67,3.0,-999.0,82,0.00,,,-99.99,348.799988,,2013-07-17 14:52:00,
2013-07-17 11:00:00,83.0,76.0,-100.00,East,93,5.0,-999.0,78,0.00,,,-99.99,636.299988,,2013-07-17 15:00:00,
2013-07-17 11:12:00,83.0,76.0,-100.00,East,81,4.0,-999.0,81,0.00,,,-99.99,285.700012,,2013-07-17 15:12:00,
2013-07-17 11:22:00,83.0,76.0,-100.00,East,93,5.0,-999.0,78,0.00,,,-99.99,636.299988,,2013-07-17 15:22:00,
2013-07-17 11:32:00,83.0,76.0,-100.00,East,93,5.0,-999.0,78,0.00,,,-99.99,636.299988,,2013-07-17 15:32:00,
2013-07-17 11:42:00,83.0,76.0,-100.00,East,93,5.0,-999.0,78,0.00,,,-99.99,636.299988,,2013-07-17 15:42:00,
2013-07-17 11:52:00,83.0,76.0,-100.00,East,93,5.0,-999.0,78,0.00,,,-99.99,636.299988,,2013-07-17 15:52:00,